Location: Rowland
(34.5359°N, 79.2929°W)
Time: 15:44:26
(UTC+00:00)

S-56A Canister/Altair - Pass Details

Date: 09 October 2022
Orbit: 638 x 2494 km, 38.9° (Epoch: 06 December)

Event Time Altitude Azimuth Distance (km) Brightness Sun altitude
Rises 01:43:24 0° 205° (SSW) 6,012 12.1 -35.8°
Reaches altitude 10° 01:47:47 10° 197° (SSW) 5,103 11.6 -36.6°
Enters shadow 01:54:10 26° 177° (S) 3,979 10.8 -37.8°
